Regional Weather Roundup
Issued by NWS

Home | Current Version | Previous Version | Text Only | Print | Product List | Glossary Off
Versions: 1 2 3 4 5 6 7 8 9 10 11 12 13 14 15 16 17 18 19 20 21 22 23 24 25 26 27 28 29 30 31 32 33 34 35 36 37 38 39 40 41 42 43 44 45 46 47 48 49 50

000
ASUS43 KDMX 212306
RWRIA

WEATHER ROUNDUP FOR IOWA
NATIONAL WEATHER SERVICE DES MOINES IA
600 PM CDT MON AUG 21 2017

NOTE: "FAIR" INDICATES FEW OR NO CLOUDS BELOW 12,000 FEET WITH NO
SIGNIFICANT WEATHER AND/OR OBSTRUCTIONS TO VISIBILITY.

* - THESE STATIONS ARE NOT NWS STATIONS...THUS NOT UNDER NWS
QUALITY CONTROL.  THEY ALSO DO NOT REPORT WEATHER SUCH
AS PRECIPITATION OR FOG.

IAZ001>003-012>014-020>022-031>034-043>046-220000-
   NORTHWEST IOWA

CITY           SKY/WX    TMP DP  RH WIND       PRES   REMARKS
CARROLL *      DRIZZLE   68  66  94 E8G21     29.99F
CHEROKEE *     LGT RAIN  65  64  97 W13       29.99R
DENISON *      MOSUNNY   68  64  88 E13G25    29.97F
LE MARS *      CLOUDY   104 N/A N/A CALM      29.99R
ORANGE CITY *  DRIZZLE   66  64  94 SE6       29.99R
SHELDON *      CLOUDY    66  64  94 S7        29.97R
SIOUX CITY     CLOUDY    71  66  84 N8        29.98R
SPENCER        CLOUDY    68  64  87 SE9       29.95R
STORM LAKE *   CLOUDY    64  63  94 E9G17     29.98R
$$

IAZ055>058-069>071-079>083-090>094-220000-
   SOUTHWEST IOWA

CITY           SKY/WX    TMP DP  RH WIND       PRES   REMARKS
ATLANTIC *     CLOUDY    79  73  83 W8        30.00R HX  82
AUDUBON *      LGT RAIN  70  64  83 N10       30.04R
CLARINDA *     CLOUDY    81  75  83 S6        29.98S HX  86
COUNCIL BLFS * CLOUDY    79  77  94 E5        29.98S HX  83
CRESTON *      MOSUNNY   79  70  73 SW10G21   29.99R HX  81
HARLAN  *      DRIZZLE   73  70  88 NE6G13    30.03F
LAMONI         MOSUNNY   77  70  79 S14G23    29.98F
RED OAK *      PTSUNNY   82  75  78 VRB5      29.98R HX  89
SHENANDOAH *   CLOUDY    82  73  74 S9        29.95F HX  88
$$

IAZ047>049-059>061-072>074-084-220000-
   CENTRAL IOWA

CITY           SKY/WX    TMP DP  RH WIND       PRES   REMARKS
AMES           LGT RAIN  69  69 100 N35G43    30.06R VSB 3/4
ANKENY *       CLOUDY    79  70  73 N13G23    29.99R HX  81
BOONE *        RAIN      68  66  94 NW10      30.06R VSB 3/4
CHARITON *     CLOUDY    79  68  69 S18G28    29.97R HX  81
DES MOINES     CLOUDY    83  70  64 W9        29.96R HX  87
GRINNELL*      CLOUDY    74  69  83 N8        30.00R
KNOXVILLE *    PTSUNNY   81  68  65 SW18      29.94S HX  83
MARSHALLTOWN   PTSUNNY   75  68  78 N6        29.97R
NEWTON *       CLOUDY    81  72  74 N5        29.97R HX  84
PELLA *        PTSUNNY   83  67  58 SW10G17   29.95S HX  86
PERRY *        RAIN      70  66  86 N21G35    30.06R
$$

IAZ004>006-015-016-023>025-035-036-220000-
   NORTH CENTRAL IOWA

CITY           SKY/WX    TMP DP  RH WIND       PRES   REMARKS
ALGONA *       LGT RAIN  64  64 100 SE16G28   29.90F
CLARION *      CLOUDY    64  64 100 N7G13     30.05R FOG
ESTHERVILLE    CLOUDY    65  64  97 S8        29.90F
FORT DODGE *   CLOUDY    64  59  82 NE15      29.98F THUNDER
MASON CITY     RAIN      65  64  97 NW3       30.05R FOG
FOREST CITY *  RAIN      66  64  94 E6        30.00F
WEBSTER CITY * RAIN      64  63  94 N14G22    30.02R
IOWA FALLS *   CLOUDY    72  65  79 NE7       29.97F
$$

IAZ007>011-017>019-026>030-037>042-050>054-066-220000-
   NORTHEAST IOWA

CITY           SKY/WX    TMP DP  RH WIND       PRES   REMARKS
CEDAR RAPIDS   CLOUDY    75  69  81 N5        29.98R
CHARLES CITY * LGT RAIN  68  68 100 N8        30.01F
CLINTON *      CLOUDY    77  72  84 W3        29.99R
DECORAH *      DRIZZLE   70  66  88 VRB3      30.01R
DUBUQUE        CLOUDY    75  68  78 SW9       29.98F
MONTICELLO *   CLOUDY    77  70  78 S7        29.98R
OELWEIN *      PTSUNNY   72  70  94 CALM      29.99S
WATERLOO       CLOUDY    72  68  87 E3        29.96S
$$

IAZ064-065-067-068-078-220000-
   EAST CENTRAL IOWA

CITY           SKY/WX    TMP DP  RH WIND       PRES   REMARKS
DAVENPORT      CLOUDY    79  71  76 CALM      29.99S HX  82
IOWA CITY      CLOUDY    81  72  74 N7        29.97S HX  85
MT. PLEASANT * CLOUDY    78  67  70 SW10G17   29.97S
MUSCATINE *    CLOUDY    82  68  61 S7        29.96S HX  85
QUAD CITIES    CLOUDY    79  69  71 S5        29.97R HX  81
$$

IAZ062-063-075>077-085>089-095>099-220000-
   SOUTHEAST IOWA

CITY           SKY/WX    TMP DP  RH WIND       PRES   REMARKS
BURLINGTON     PTSUNNY   76  73  91 S8        29.97R
FAIRFIELD *    CLOUDY    81  66  61 S14       29.96R HX  83
FORT MADISON * CLOUDY    75  73  94 S7        29.98F
KEOKUK *       CLOUDY    77  75  94 SW8       29.98S
OSKALOOSA *      N/A     79  68  69 SW13G20   29.96S HX  82
CENTERVILLE *    N/A     75  70  83 S12       30.00F
OTTUMWA        CLOUDY    81  67  62 SW9G18    29.95S HX  83
WASHINGTON *   CLOUDY    82  75  78 CALM      29.96S HX  89
$$

ABBREVIATIONS USED IN REMARKS
   TC - TEMPERATURES IN CELSIUS
  WCI - WIND CHILL INDEX
   HX - HEAT INDEX
  VSB - VISIBILITY
$$




USA.gov is the U.S. government's official web portal to all federal, state and local government web resources and services.